Year,Month,Day,Hour,Minute,Value (Times are PST for temperature in C)
2009,05,28,00,00,11.10
2009,05,28,00,01,11.10
2009,05,28,00,02,11.10
2009,05,28,00,03,11.10
2009,05,28,00,04,11.10
2009,05,28,00,05,11.10
2009,05,28,00,06,11.10
2009,05,28,00,07,11.10
2009,05,28,00,08,11.10
2009,05,28,00,09,11.00
2009,05,28,00,10,11.00
2009,05,28,00,11,11.00
2009,05,28,00,12,10.90
2009,05,28,00,13,10.90
2009,05,28,00,14,10.90
2009,05,28,00,15,10.90
2009,05,28,00,16,10.90
2009,05,28,00,17,10.80
2009,05,28,00,18,10.80
2009,05,28,00,19,10.80
2009,05,28,00,20,10.80
2009,05,28,00,21,10.70
2009,05,28,00,22,10.70
2009,05,28,00,23,10.70
2009,05,28,00,24,10.70
2009,05,28,00,25,10.70
2009,05,28,00,26,10.70
2009,05,28,00,27,10.60
2009,05,28,00,28,10.60
2009,05,28,00,29,10.60
2009,05,28,00,30,10.60
2009,05,28,00,31,10.60
2009,05,28,00,32,10.60
2009,05,28,00,33,10.60
2009,05,28,00,34,10.60
2009,05,28,00,35,10.60
2009,05,28,00,36,10.60
2009,05,28,00,37,10.60
2009,05,28,00,38,10.60
2009,05,28,00,39,10.60
2009,05,28,00,40,10.50
2009,05,28,00,41,10.50
2009,05,28,00,42,10.50
2009,05,28,00,43,10.50
2009,05,28,00,44,10.40
2009,05,28,00,45,10.40
2009,05,28,00,46,10.40
2009,05,28,00,47,10.30
2009,05,28,00,48,10.30
2009,05,28,00,49,10.30
2009,05,28,00,50,10.30
2009,05,28,00,51,10.30
2009,05,28,00,52,10.30
2009,05,28,00,53,10.30
2009,05,28,00,54,10.30
2009,05,28,00,55,10.30
2009,05,28,00,56,10.30
2009,05,28,00,57,10.30
2009,05,28,00,58,10.30
2009,05,28,00,59,10.30
2009,05,28,01,00,10.30
2009,05,28,01,01,10.30
2009,05,28,01,02,10.30
2009,05,28,01,03,10.30
2009,05,28,01,04,10.30
2009,05,28,01,05,10.30
2009,05,28,01,06,10.30
2009,05,28,01,07,10.30
2009,05,28,01,08,10.30
2009,05,28,01,09,10.30
2009,05,28,01,10,10.30
2009,05,28,01,11,10.30
2009,05,28,01,12,10.40
2009,05,28,01,13,10.40
2009,05,28,01,14,10.40
2009,05,28,01,15,10.40
2009,05,28,01,16,10.40
2009,05,28,01,17,10.40
2009,05,28,01,18,10.40
2009,05,28,01,19,10.30
2009,05,28,01,20,10.30
2009,05,28,01,21,10.30
2009,05,28,01,22,10.30
2009,05,28,01,23,10.30
2009,05,28,01,24,10.30
2009,05,28,01,25,10.30
2009,05,28,01,26,10.30
2009,05,28,01,27,10.30
2009,05,28,01,28,10.20
2009,05,28,01,29,10.20
2009,05,28,01,30,10.20
2009,05,28,01,31,10.20
2009,05,28,01,32,10.20
2009,05,28,01,33,10.20
2009,05,28,01,34,10.20
2009,05,28,01,35,10.20
2009,05,28,01,36,10.20
2009,05,28,01,37,10.20
2009,05,28,01,38,10.20
2009,05,28,01,39,10.10
2009,05,28,01,40,10.10
2009,05,28,01,41,10.10
2009,05,28,01,42,10.10
2009,05,28,01,43,10.10
2009,05,28,01,44,10.10
2009,05,28,01,45,10.10
2009,05,28,01,46,10.10
2009,05,28,01,47,10.10
2009,05,28,01,48,10.10
2009,05,28,01,49,10.10
2009,05,28,01,50,10.10
2009,05,28,01,51,10.00
2009,05,28,01,52,10.00
2009,05,28,01,53,10.00
2009,05,28,01,54,10.00
2009,05,28,01,55,10.00
2009,05,28,01,56,10.00
2009,05,28,01,57,10.00
2009,05,28,01,58,10.00
2009,05,28,01,59,10.00
2009,05,28,02,00,9.90
2009,05,28,02,01,9.90
2009,05,28,02,02,9.90
2009,05,28,02,03,9.90
2009,05,28,02,04,9.90
2009,05,28,02,05,9.90
2009,05,28,02,06,9.90
2009,05,28,02,07,9.90
2009,05,28,02,08,9.90
2009,05,28,02,09,9.90
2009,05,28,02,10,9.90
2009,05,28,02,11,9.90
2009,05,28,02,12,9.90
2009,05,28,02,13,9.90
2009,05,28,02,14,9.90
2009,05,28,02,15,9.80
2009,05,28,02,16,9.80
2009,05,28,02,17,9.80
2009,05,28,02,18,9.80
2009,05,28,02,19,9.80
2009,05,28,02,20,9.80
2009,05,28,02,21,9.80
2009,05,28,02,22,9.70
2009,05,28,02,23,9.70
2009,05,28,02,24,9.70
2009,05,28,02,25,9.70
2009,05,28,02,26,9.70
2009,05,28,02,27,9.70
2009,05,28,02,28,9.70
2009,05,28,02,29,9.70
2009,05,28,02,30,9.70
2009,05,28,02,31,9.70
2009,05,28,02,32,9.70
2009,05,28,02,33,9.70
2009,05,28,02,34,9.70
2009,05,28,02,35,9.60
2009,05,28,02,36,9.60
2009,05,28,02,37,9.60
2009,05,28,02,38,9.60
2009,05,28,02,39,9.60
2009,05,28,02,40,9.60
2009,05,28,02,41,9.60
2009,05,28,02,42,9.60
2009,05,28,02,43,9.60
2009,05,28,02,44,9.60
2009,05,28,02,45,9.60
2009,05,28,02,46,9.50
2009,05,28,02,47,9.50
2009,05,28,02,48,9.40
2009,05,28,02,49,9.40
2009,05,28,02,50,9.40
2009,05,28,02,51,9.40
2009,05,28,02,52,9.30
2009,05,28,02,53,9.30
2009,05,28,02,54,9.30
2009,05,28,02,55,9.30
2009,05,28,02,56,9.30
2009,05,28,02,57,9.30
2009,05,28,02,58,9.40
2009,05,28,02,59,9.40
2009,05,28,03,00,9.40
2009,05,28,03,01,9.40
2009,05,28,03,02,9.40
2009,05,28,03,03,9.40
2009,05,28,03,04,9.30
2009,05,28,03,05,9.30
2009,05,28,03,06,9.30
2009,05,28,03,07,9.30
2009,05,28,03,08,9.30
2009,05,28,03,09,9.30
2009,05,28,03,10,9.30
2009,05,28,03,11,9.30
2009,05,28,03,12,9.30
2009,05,28,03,13,9.20
2009,05,28,03,14,9.20
2009,05,28,03,15,9.20
2009,05,28,03,16,9.20
2009,05,28,03,17,9.20
2009,05,28,03,18,9.20
2009,05,28,03,19,9.20
2009,05,28,03,20,9.20
2009,05,28,03,21,9.20
2009,05,28,03,22,9.20
2009,05,28,03,23,9.10
2009,05,28,03,24,9.10
2009,05,28,03,25,9.10
2009,05,28,03,26,9.10
2009,05,28,03,27,9.10
2009,05,28,03,28,9.10
2009,05,28,03,29,9.10
2009,05,28,03,30,9.10
2009,05,28,03,31,9.00
2009,05,28,03,32,9.00
2009,05,28,03,33,9.00
2009,05,28,03,34,9.00
2009,05,28,03,35,9.00
2009,05,28,03,36,9.00
2009,05,28,03,37,9.00
2009,05,28,03,38,9.00
2009,05,28,03,39,9.00
2009,05,28,03,40,9.00
2009,05,28,03,41,9.00
2009,05,28,03,42,9.00
2009,05,28,03,43,8.90
2009,05,28,03,44,8.90
2009,05,28,03,45,8.90
2009,05,28,03,46,8.90
2009,05,28,03,47,8.90
2009,05,28,03,48,8.90
2009,05,28,03,49,8.90
2009,05,28,03,50,8.80
2009,05,28,03,51,8.80
2009,05,28,03,52,8.80
2009,05,28,03,53,8.70
2009,05,28,03,54,8.70
2009,05,28,03,55,8.70
2009,05,28,03,56,8.70
2009,05,28,03,57,8.60
2009,05,28,03,58,8.70
2009,05,28,03,59,8.70
2009,05,28,04,00,8.70
2009,05,28,04,01,8.70
2009,05,28,04,02,8.70
2009,05,28,04,03,8.70
2009,05,28,04,04,8.70
2009,05,28,04,05,8.70
2009,05,28,04,06,8.70
2009,05,28,04,07,8.70
2009,05,28,04,08,8.70
2009,05,28,04,09,8.70
2009,05,28,04,10,8.70
2009,05,28,04,11,8.70
2009,05,28,04,12,8.70
2009,05,28,04,13,8.70
2009,05,28,04,14,8.70
2009,05,28,04,15,8.70
2009,05,28,04,16,8.80
2009,05,28,04,17,8.80
2009,05,28,04,18,8.80
2009,05,28,04,19,8.90
2009,05,28,04,20,9.00
2009,05,28,04,21,9.00
2009,05,28,04,22,9.00
2009,05,28,04,23,9.10
2009,05,28,04,24,9.10
2009,05,28,04,25,9.10
2009,05,28,04,26,9.20
2009,05,28,04,27,9.20
2009,05,28,04,28,9.20
2009,05,28,04,29,9.20
2009,05,28,04,30,9.30
2009,05,28,04,31,9.20
2009,05,28,04,32,9.30
2009,05,28,04,33,9.20
2009,05,28,04,34,9.20
2009,05,28,04,35,9.20
2009,05,28,04,36,9.20
2009,05,28,04,37,9.20
2009,05,28,04,38,9.20
2009,05,28,04,39,9.20
2009,05,28,04,40,9.10
2009,05,28,04,41,9.10
2009,05,28,04,42,9.10
2009,05,28,04,43,9.10
2009,05,28,04,44,9.10
2009,05,28,04,45,9.10
2009,05,28,04,46,9.10
2009,05,28,04,47,9.10
2009,05,28,04,48,9.10
2009,05,28,04,49,9.10
2009,05,28,04,50,9.10
2009,05,28,04,51,9.10
2009,05,28,04,52,9.00
2009,05,28,04,53,9.00
2009,05,28,04,54,8.90
2009,05,28,04,55,8.90
2009,05,28,04,56,8.90
2009,05,28,04,57,8.90
2009,05,28,04,58,8.80
2009,05,28,04,59,8.80
2009,05,28,05,00,8.80
2009,05,28,05,01,8.80
2009,05,28,05,02,8.80
2009,05,28,05,03,8.80
2009,05,28,05,04,8.90
2009,05,28,05,05,8.90
2009,05,28,05,06,8.90
2009,05,28,05,07,8.90
2009,05,28,05,08,9.00
2009,05,28,05,09,9.00
2009,05,28,05,10,9.10
2009,05,28,05,11,9.10
2009,05,28,05,12,9.10
2009,05,28,05,13,9.10
2009,05,28,05,14,9.20
2009,05,28,05,15,9.20
2009,05,28,05,16,9.20
2009,05,28,05,17,9.20
2009,05,28,05,18,9.30
2009,05,28,05,19,9.30
2009,05,28,05,20,9.30
2009,05,28,05,21,9.30
2009,05,28,05,22,9.30
2009,05,28,05,23,9.30
2009,05,28,05,24,9.30
2009,05,28,05,25,9.30
2009,05,28,05,26,9.30
2009,05,28,05,27,9.30
2009,05,28,05,28,9.30
2009,05,28,05,29,9.30
2009,05,28,05,30,9.30
2009,05,28,05,31,9.30
2009,05,28,05,32,9.30
2009,05,28,05,33,9.30
2009,05,28,05,34,9.30
2009,05,28,05,35,9.30
2009,05,28,05,36,9.30
2009,05,28,05,37,9.30
2009,05,28,05,38,9.30
2009,05,28,05,39,9.30
2009,05,28,05,40,9.30
2009,05,28,05,41,9.20
2009,05,28,05,42,9.20
2009,05,28,05,43,9.20
2009,05,28,05,44,9.20
2009,05,28,05,45,9.20
2009,05,28,05,46,9.20
2009,05,28,05,47,9.10
2009,05,28,05,48,9.10
2009,05,28,05,49,9.10
2009,05,28,05,50,9.10
2009,05,28,05,51,9.10
2009,05,28,05,52,9.10
2009,05,28,05,53,9.10
2009,05,28,05,54,9.10
2009,05,28,05,55,9.10
2009,05,28,05,56,9.10
2009,05,28,05,57,9.10
2009,05,28,05,58,9.10
2009,05,28,05,59,9.10
2009,05,28,06,00,9.10
2009,05,28,06,01,9.10
2009,05,28,06,02,9.10
2009,05,28,06,03,9.10
2009,05,28,06,04,9.10
2009,05,28,06,05,9.10
2009,05,28,06,06,9.10
2009,05,28,06,07,9.10
2009,05,28,06,08,9.10
2009,05,28,06,09,9.10
2009,05,28,06,10,9.20
2009,05,28,06,11,9.20
2009,05,28,06,12,9.20
2009,05,28,06,13,9.20
2009,05,28,06,14,9.30
2009,05,28,06,15,9.30
2009,05,28,06,16,9.30
2009,05,28,06,17,9.30
2009,05,28,06,18,9.30
2009,05,28,06,19,9.40
2009,05,28,06,20,9.40
2009,05,28,06,21,9.40
2009,05,28,06,22,9.40
2009,05,28,06,23,9.40
2009,05,28,06,24,9.50
2009,05,28,06,25,9.50
2009,05,28,06,26,9.50
2009,05,28,06,27,9.60
2009,05,28,06,28,9.60
2009,05,28,06,29,9.60
2009,05,28,06,30,9.60
2009,05,28,06,31,9.60
2009,05,28,06,32,9.60
2009,05,28,06,33,9.70
2009,05,28,06,34,9.70
2009,05,28,06,35,9.70
2009,05,28,06,36,9.70
2009,05,28,06,37,9.70
2009,05,28,06,38,9.80
2009,05,28,06,39,9.80
2009,05,28,06,40,9.80
2009,05,28,06,41,9.80
2009,05,28,06,42,9.90
2009,05,28,06,43,9.90
2009,05,28,06,44,9.90
2009,05,28,06,45,9.90
2009,05,28,06,46,10.00
2009,05,28,06,47,10.00
2009,05,28,06,48,10.00
2009,05,28,06,49,10.00
2009,05,28,06,50,10.00
2009,05,28,06,51,10.00
2009,05,28,06,52,10.10
2009,05,28,06,53,10.10
2009,05,28,06,54,10.10
2009,05,28,06,55,10.10
2009,05,28,06,56,10.20
2009,05,28,06,57,10.20
2009,05,28,06,58,10.20
2009,05,28,06,59,10.20
2009,05,28,07,00,10.20
2009,05,28,07,01,10.20
2009,05,28,07,02,10.30
2009,05,28,07,03,10.30
2009,05,28,07,04,10.30
2009,05,28,07,05,10.30
2009,05,28,07,06,10.40
2009,05,28,07,07,10.40
2009,05,28,07,08,10.40
2009,05,28,07,09,10.50
2009,05,28,07,10,10.50
2009,05,28,07,11,10.60
2009,05,28,07,12,10.60
2009,05,28,07,13,10.60
2009,05,28,07,14,10.70
2009,05,28,07,15,10.70
2009,05,28,07,16,10.70
2009,05,28,07,17,10.80
2009,05,28,07,18,10.80
2009,05,28,07,19,10.80
2009,05,28,07,20,10.80
2009,05,28,07,21,10.80
2009,05,28,07,22,10.80
2009,05,28,07,23,10.80
2009,05,28,07,24,10.80
2009,05,28,07,25,10.90
2009,05,28,07,26,10.90
2009,05,28,07,27,10.90
2009,05,28,07,28,10.90
2009,05,28,07,29,10.90
2009,05,28,07,30,10.90
2009,05,28,07,31,10.90
2009,05,28,07,32,11.00
2009,05,28,07,33,11.00
2009,05,28,07,34,11.00
2009,05,28,07,35,11.10
2009,05,28,07,36,11.10
2009,05,28,07,37,11.10
2009,05,28,07,38,11.10
2009,05,28,07,39,11.20
2009,05,28,07,40,11.20
2009,05,28,07,41,11.20
2009,05,28,07,42,11.20
2009,05,28,07,43,11.20
2009,05,28,07,44,11.20
2009,05,28,07,45,11.30
2009,05,28,07,46,11.30
2009,05,28,07,47,11.30
2009,05,28,07,48,11.40
2009,05,28,07,49,11.40
2009,05,28,07,50,11.40
2009,05,28,07,51,11.50
2009,05,28,07,52,11.50
2009,05,28,07,53,11.50
2009,05,28,07,54,11.60
2009,05,28,07,55,11.60
2009,05,28,07,56,11.70
2009,05,28,07,57,11.70
2009,05,28,07,58,11.80
2009,05,28,07,59,11.80
2009,05,28,08,00,11.90
2009,05,28,08,01,11.90
2009,05,28,08,02,11.90
2009,05,28,08,03,12.00
2009,05,28,08,04,12.10
2009,05,28,08,05,12.10
2009,05,28,08,06,12.20
2009,05,28,08,07,12.20
2009,05,28,08,08,12.20
2009,05,28,08,09,12.30
2009,05,28,08,10,12.30
2009,05,28,08,11,12.30
2009,05,28,08,12,12.40
2009,05,28,08,13,12.50
2009,05,28,08,14,12.60
2009,05,28,08,15,12.70
2009,05,28,08,16,12.70
2009,05,28,08,17,12.80
2009,05,28,08,18,12.80
2009,05,28,08,19,12.90
2009,05,28,08,20,13.00
2009,05,28,08,21,13.10
2009,05,28,08,22,13.20
2009,05,28,08,23,13.30
2009,05,28,08,24,13.40
2009,05,28,08,25,13.50
2009,05,28,08,26,13.60
2009,05,28,08,27,13.70
2009,05,28,08,28,13.70
2009,05,28,08,29,13.80
2009,05,28,08,30,13.80
2009,05,28,08,31,13.80
2009,05,28,08,32,13.90
2009,05,28,08,33,13.90
2009,05,28,08,34,13.80
2009,05,28,08,35,13.90
2009,05,28,08,36,13.90
2009,05,28,08,37,13.90
2009,05,28,08,38,13.80
2009,05,28,08,39,13.80
2009,05,28,08,40,13.80
2009,05,28,08,41,13.80
2009,05,28,08,42,13.70
2009,05,28,08,43,13.70
2009,05,28,08,44,13.70
2009,05,28,08,45,13.70
2009,05,28,08,46,13.80
2009,05,28,08,47,13.80
2009,05,28,08,48,13.80
2009,05,28,08,49,13.80
2009,05,28,08,50,13.90
2009,05,28,08,51,14.00
2009,05,28,08,52,14.10
2009,05,28,08,53,14.00
2009,05,28,08,54,14.00
2009,05,28,08,55,13.90
2009,05,28,08,56,13.80
2009,05,28,08,57,13.80
2009,05,28,08,58,13.70
2009,05,28,08,59,13.70
2009,05,28,09,00,13.70
2009,05,28,09,01,13.70
2009,05,28,09,02,13.80
2009,05,28,09,03,13.80
2009,05,28,09,04,13.90
2009,05,28,09,05,14.00
2009,05,28,09,06,14.10
2009,05,28,09,07,14.10
2009,05,28,09,08,14.20
2009,05,28,09,09,14.10
2009,05,28,09,10,14.10
2009,05,28,09,11,14.10
2009,05,28,09,12,14.10
2009,05,28,09,13,14.10
2009,05,28,09,14,14.20
2009,05,28,09,15,14.30
2009,05,28,09,16,14.30
2009,05,28,09,17,14.30
2009,05,28,09,18,14.30
2009,05,28,09,19,14.30
2009,05,28,09,20,14.30
2009,05,28,09,21,14.40
2009,05,28,09,22,14.50
2009,05,28,09,23,14.50
2009,05,28,09,24,14.40
2009,05,28,09,25,14.50
2009,05,28,09,26,14.50
2009,05,28,09,27,14.70
2009,05,28,09,28,14.70
2009,05,28,09,29,14.60
2009,05,28,09,30,14.60
2009,05,28,09,31,14.60
2009,05,28,09,32,14.60
2009,05,28,09,33,14.60
2009,05,28,09,34,14.60
2009,05,28,09,35,14.60
2009,05,28,09,36,14.50
2009,05,28,09,37,14.50
2009,05,28,09,38,14.50
2009,05,28,09,39,14.50
2009,05,28,09,40,14.50
2009,05,28,09,41,14.50
2009,05,28,09,42,14.40
2009,05,28,09,43,14.40
2009,05,28,09,44,14.40
2009,05,28,09,45,14.30
2009,05,28,09,46,14.30
2009,05,28,09,47,14.30
2009,05,28,09,48,14.30
2009,05,28,09,49,14.30
2009,05,28,09,50,14.20
2009,05,28,09,51,14.10
2009,05,28,09,52,14.10
2009,05,28,09,53,14.00
2009,05,28,09,54,14.00
2009,05,28,09,55,14.10
2009,05,28,09,56,14.00
2009,05,28,09,57,14.10
2009,05,28,09,58,14.20
2009,05,28,09,59,14.30
2009,05,28,10,00,14.40
2009,05,28,10,01,14.60
2009,05,28,10,02,14.70
2009,05,28,10,03,14.70
2009,05,28,10,04,14.80
2009,05,28,10,05,14.80
2009,05,28,10,06,14.90
2009,05,28,10,07,14.90
2009,05,28,10,08,14.80
2009,05,28,10,09,14.80
2009,05,28,10,10,14.70
2009,05,28,10,11,14.60
2009,05,28,10,12,14.50
2009,05,28,10,13,14.40
2009,05,28,10,14,14.30
2009,05,28,10,15,14.30
2009,05,28,10,16,14.30
2009,05,28,10,17,14.40
2009,05,28,10,18,14.50
2009,05,28,10,19,14.60
2009,05,28,10,20,14.50
2009,05,28,10,21,14.40
2009,05,28,10,22,14.40
2009,05,28,10,23,14.40
2009,05,28,10,24,14.40
2009,05,28,10,25,14.50
2009,05,28,10,26,14.50
2009,05,28,10,27,14.50
2009,05,28,10,28,14.40
2009,05,28,10,29,14.30
2009,05,28,10,30,14.30
2009,05,28,10,31,14.30
2009,05,28,10,32,14.30
2009,05,28,10,33,14.20
2009,05,28,10,34,14.30
2009,05,28,10,35,14.30
2009,05,28,10,36,14.20
2009,05,28,10,37,14.20
2009,05,28,10,38,14.30
2009,05,28,10,39,14.40
2009,05,28,10,40,14.50
2009,05,28,10,41,14.60
2009,05,28,10,42,14.80
2009,05,28,10,43,14.90
2009,05,28,10,44,15.00
2009,05,28,10,45,14.90
2009,05,28,10,46,14.80
2009,05,28,10,47,14.80
2009,05,28,10,48,14.80
2009,05,28,10,49,14.70
2009,05,28,10,50,14.70
2009,05,28,10,51,14.70
2009,05,28,10,52,14.70
2009,05,28,10,53,14.80
2009,05,28,10,54,14.80
2009,05,28,10,55,14.70
2009,05,28,10,56,14.80
2009,05,28,10,57,14.90
2009,05,28,10,58,15.00
2009,05,28,10,59,15.00
2009,05,28,11,00,15.10
2009,05,28,11,01,15.00
2009,05,28,11,02,15.00
2009,05,28,11,03,15.00
2009,05,28,11,04,15.00
2009,05,28,11,05,14.90
2009,05,28,11,06,14.90
2009,05,28,11,07,14.90
2009,05,28,11,08,14.90
2009,05,28,11,09,14.90
2009,05,28,11,10,14.90
2009,05,28,11,11,14.90
2009,05,28,11,12,15.00
2009,05,28,11,13,15.00
2009,05,28,11,14,15.00
2009,05,28,11,15,15.00
2009,05,28,11,16,15.00
2009,05,28,11,17,15.00
2009,05,28,11,18,15.00
2009,05,28,11,19,15.00
2009,05,28,11,20,15.00
2009,05,28,11,21,15.00
2009,05,28,11,22,15.00
2009,05,28,11,23,15.00
2009,05,28,11,24,15.00
2009,05,28,11,25,15.00
2009,05,28,11,26,15.00
2009,05,28,11,27,15.00
2009,05,28,11,28,15.10
2009,05,28,11,29,15.20
2009,05,28,11,30,15.30
2009,05,28,11,31,15.40
2009,05,28,11,32,15.50
2009,05,28,11,33,15.50
2009,05,28,11,34,15.50
2009,05,28,11,35,15.50
2009,05,28,11,36,15.60
2009,05,28,11,37,15.70
2009,05,28,11,38,15.80
2009,05,28,11,39,15.80
2009,05,28,11,40,15.90
2009,05,28,11,41,15.90
2009,05,28,11,42,15.90
2009,05,28,11,43,15.90
2009,05,28,11,44,15.90
2009,05,28,11,45,16.10
2009,05,28,11,46,16.20
2009,05,28,11,47,16.20
2009,05,28,11,48,16.20
2009,05,28,11,49,16.20
2009,05,28,11,50,16.20
2009,05,28,11,51,16.30
2009,05,28,11,52,16.30
2009,05,28,11,53,16.40
2009,05,28,11,54,16.40
2009,05,28,11,55,16.30
2009,05,28,11,56,16.20
2009,05,28,11,57,16.10
2009,05,28,11,58,16.00
2009,05,28,11,59,16.00
2009,05,28,12,00,16.00
2009,05,28,12,01,15.90
2009,05,28,12,02,15.90
2009,05,28,12,03,15.90
2009,05,28,12,04,16.00
2009,05,28,12,05,16.00
2009,05,28,12,06,16.00
2009,05,28,12,07,16.10
2009,05,28,12,08,16.00
2009,05,28,12,09,15.90
2009,05,28,12,10,15.90
2009,05,28,12,11,15.90
2009,05,28,12,12,16.00
2009,05,28,12,13,16.10
2009,05,28,12,14,16.10
2009,05,28,12,15,16.10
2009,05,28,12,16,16.10
2009,05,28,12,17,16.20
2009,05,28,12,18,16.30
2009,05,28,12,19,16.30
2009,05,28,12,20,16.40
2009,05,28,12,21,16.40
2009,05,28,12,22,16.50
2009,05,28,12,23,16.50
2009,05,28,12,24,16.60
2009,05,28,12,25,16.50
2009,05,28,12,26,16.50
2009,05,28,12,27,16.50
2009,05,28,12,28,16.60
2009,05,28,12,29,16.60
2009,05,28,12,30,16.60
2009,05,28,12,31,16.60
2009,05,28,12,32,16.70
2009,05,28,12,33,16.70
2009,05,28,12,34,16.80
2009,05,28,12,35,16.80
2009,05,28,12,36,16.80
2009,05,28,12,37,16.80
2009,05,28,12,38,16.90
2009,05,28,12,39,16.90
2009,05,28,12,40,16.80
2009,05,28,12,41,16.80
2009,05,28,12,42,16.80
2009,05,28,12,43,16.80
2009,05,28,12,44,16.90
2009,05,28,12,45,16.80
2009,05,28,12,46,16.70
2009,05,28,12,47,16.60
2009,05,28,12,48,16.60
2009,05,28,12,49,16.60
2009,05,28,12,50,16.60
2009,05,28,12,51,16.60
2009,05,28,12,52,16.70
2009,05,28,12,53,16.70
2009,05,28,12,54,16.80
2009,05,28,12,55,16.90
2009,05,28,12,56,16.80
2009,05,28,12,57,16.80
2009,05,28,12,58,16.80
2009,05,28,12,59,16.80
2009,05,28,13,00,16.80
2009,05,28,13,01,16.70
2009,05,28,13,02,16.60
2009,05,28,13,03,16.60
2009,05,28,13,04,16.60
2009,05,28,13,05,16.70
2009,05,28,13,06,16.70
2009,05,28,13,07,16.70
2009,05,28,13,08,16.70
2009,05,28,13,09,16.70
2009,05,28,13,10,16.70
2009,05,28,13,11,16.70
2009,05,28,13,12,16.60
2009,05,28,13,13,16.60
2009,05,28,13,14,16.50
2009,05,28,13,15,16.50
2009,05,28,13,16,16.50
2009,05,28,13,17,16.50
2009,05,28,13,18,16.50
2009,05,28,13,19,16.60
2009,05,28,13,20,16.60
2009,05,28,13,21,16.60
2009,05,28,13,22,16.70
2009,05,28,13,23,16.70
2009,05,28,13,24,16.70
2009,05,28,13,25,16.80
2009,05,28,13,26,16.90
2009,05,28,13,27,16.90
2009,05,28,13,28,16.90
2009,05,28,13,29,16.90
2009,05,28,13,30,16.90
2009,05,28,13,31,17.00
2009,05,28,13,32,17.00
2009,05,28,13,33,17.10
2009,05,28,13,34,17.10
2009,05,28,13,35,17.20
2009,05,28,13,36,17.40
2009,05,28,13,37,17.40
2009,05,28,13,38,17.50
2009,05,28,13,39,17.50
2009,05,28,13,40,17.50
2009,05,28,13,41,17.60
2009,05,28,13,42,17.60
2009,05,28,13,43,17.60
2009,05,28,13,44,17.40
2009,05,28,13,45,17.30
2009,05,28,13,46,17.30
2009,05,28,13,47,17.30
2009,05,28,13,48,17.30
2009,05,28,13,49,17.30
2009,05,28,13,50,17.40
2009,05,28,13,51,17.30
2009,05,28,13,52,17.30
2009,05,28,13,53,17.20
2009,05,28,13,54,17.10
2009,05,28,13,55,17.00
2009,05,28,13,56,17.00
2009,05,28,13,57,17.10
2009,05,28,13,58,17.20
2009,05,28,13,59,17.30
2009,05,28,14,00,17.30
2009,05,28,14,01,17.30
2009,05,28,14,02,17.30
2009,05,28,14,03,17.30
2009,05,28,14,04,17.40
2009,05,28,14,05,17.40
2009,05,28,14,06,17.40
2009,05,28,14,07,17.40
2009,05,28,14,08,17.40
2009,05,28,14,09,17.40
2009,05,28,14,10,17.40
2009,05,28,14,11,17.40
2009,05,28,14,12,17.50
2009,05,28,14,13,17.40
2009,05,28,14,14,17.40
2009,05,28,14,15,17.40
2009,05,28,14,16,17.40
2009,05,28,14,17,17.30
2009,05,28,14,18,17.40
2009,05,28,14,19,17.40
2009,05,28,14,20,17.40
2009,05,28,14,21,17.40
2009,05,28,14,22,17.30
2009,05,28,14,23,17.30
2009,05,28,14,24,17.30
2009,05,28,14,25,17.40
2009,05,28,14,26,17.60
2009,05,28,14,27,17.50
2009,05,28,14,28,17.60
2009,05,28,14,29,17.70
2009,05,28,14,30,17.70
2009,05,28,14,31,17.60
2009,05,28,14,32,17.70
2009,05,28,14,33,17.70
2009,05,28,14,34,17.80
2009,05,28,14,35,17.90
2009,05,28,14,36,18.00
2009,05,28,14,37,18.00
2009,05,28,14,38,18.00
2009,05,28,14,39,18.00
2009,05,28,14,40,18.00
2009,05,28,14,41,17.90
2009,05,28,14,42,17.80
2009,05,28,14,43,17.80
2009,05,28,14,44,17.80
2009,05,28,14,45,17.80
2009,05,28,14,46,17.90
2009,05,28,14,47,17.90
2009,05,28,14,48,17.90
2009,05,28,14,49,17.90
2009,05,28,14,50,17.80
2009,05,28,14,51,17.70
2009,05,28,14,52,17.70
2009,05,28,14,53,17.90
2009,05,28,14,54,18.00
2009,05,28,14,55,18.00
2009,05,28,14,56,18.00
2009,05,28,14,57,18.00
2009,05,28,14,58,18.10
2009,05,28,14,59,18.00
2009,05,28,15,00,18.00
2009,05,28,15,01,18.00
2009,05,28,15,02,18.00
2009,05,28,15,03,18.00
2009,05,28,15,04,18.10
2009,05,28,15,05,18.10
2009,05,28,15,06,18.10
2009,05,28,15,07,18.10
2009,05,28,15,08,18.10
2009,05,28,15,09,18.10
2009,05,28,15,10,18.20
2009,05,28,15,11,18.20
2009,05,28,15,12,18.20
2009,05,28,15,13,18.20
2009,05,28,15,14,18.20
2009,05,28,15,15,18.20
2009,05,28,15,16,18.20
2009,05,28,15,17,18.40
2009,05,28,15,18,18.40
2009,05,28,15,19,18.30
2009,05,28,15,20,18.20
2009,05,28,15,21,18.20
2009,05,28,15,22,18.20
2009,05,28,15,23,18.10
2009,05,28,15,24,18.10
2009,05,28,15,25,18.10
2009,05,28,15,26,18.00
2009,05,28,15,27,18.00
2009,05,28,15,28,18.00
2009,05,28,15,29,18.10
2009,05,28,15,30,18.20
2009,05,28,15,31,18.30
2009,05,28,15,32,18.40
2009,05,28,15,33,18.50
2009,05,28,15,34,18.60
2009,05,28,15,35,18.60
2009,05,28,15,36,18.50
2009,05,28,15,37,18.50
2009,05,28,15,38,18.40
2009,05,28,15,39,18.40
2009,05,28,15,40,18.50
2009,05,28,15,41,18.50
2009,05,28,15,42,18.60
2009,05,28,15,43,18.70
2009,05,28,15,44,18.80
2009,05,28,15,45,18.90
2009,05,28,15,46,18.90
2009,05,28,15,47,18.90
2009,05,28,15,48,18.90
2009,05,28,15,49,18.90
2009,05,28,15,50,18.90
2009,05,28,15,51,18.80
2009,05,28,15,52,18.70
2009,05,28,15,53,18.70
2009,05,28,15,54,18.70
2009,05,28,15,55,18.80
2009,05,28,15,56,18.80
2009,05,28,15,57,18.90
2009,05,28,15,58,18.90
2009,05,28,15,59,19.00
2009,05,28,16,00,19.00
2009,05,28,16,01,19.00
2009,05,28,16,02,18.90
2009,05,28,16,03,18.90
2009,05,28,16,04,19.00
2009,05,28,16,05,19.00
2009,05,28,16,06,19.00
2009,05,28,16,07,19.00
2009,05,28,16,08,19.00
2009,05,28,16,09,19.00
2009,05,28,16,10,19.00
2009,05,28,16,11,19.00
2009,05,28,16,12,19.00
2009,05,28,16,13,19.10
2009,05,28,16,14,19.10
2009,05,28,16,15,19.10
2009,05,28,16,16,19.10
2009,05,28,16,17,19.20
2009,05,28,16,18,19.20
2009,05,28,16,19,19.20
2009,05,28,16,20,19.20
2009,05,28,16,21,19.30
2009,05,28,16,22,19.30
2009,05,28,16,23,19.30
2009,05,28,16,24,19.30
2009,05,28,16,25,19.30
2009,05,28,16,26,19.30
2009,05,28,16,27,19.30
2009,05,28,16,28,19.30
2009,05,28,16,29,19.30
2009,05,28,16,30,19.30
2009,05,28,16,31,19.40
2009,05,28,16,32,19.40
2009,05,28,16,33,19.50
2009,05,28,16,34,19.60
2009,05,28,16,35,19.70
2009,05,28,16,36,19.70
2009,05,28,16,37,19.80
2009,05,28,16,38,19.80
2009,05,28,16,39,19.80
2009,05,28,16,40,19.90
2009,05,28,16,41,19.90
2009,05,28,16,42,20.00
2009,05,28,16,43,20.10
2009,05,28,16,44,20.10
2009,05,28,16,45,20.10
2009,05,28,16,46,20.00
2009,05,28,16,47,20.00
2009,05,28,16,48,20.00
2009,05,28,16,49,20.00
2009,05,28,16,50,20.00
2009,05,28,16,51,20.00
2009,05,28,16,52,20.10
2009,05,28,16,53,20.10
2009,05,28,16,54,20.10
2009,05,28,16,55,20.10
2009,05,28,16,56,20.10
2009,05,28,16,57,20.10
2009,05,28,16,58,20.10
2009,05,28,16,59,20.10
2009,05,28,17,00,20.10
2009,05,28,17,01,20.10
2009,05,28,17,02,20.20
2009,05,28,17,03,20.20
2009,05,28,17,04,20.20
2009,05,28,17,05,20.20
2009,05,28,17,06,20.30
2009,05,28,17,07,20.40
2009,05,28,17,08,20.40
2009,05,28,17,09,20.40
2009,05,28,17,10,20.40
2009,05,28,17,11,20.40
2009,05,28,17,12,20.50
2009,05,28,17,13,20.50
2009,05,28,17,14,20.50
2009,05,28,17,15,20.50
2009,05,28,17,16,20.50
2009,05,28,17,17,20.60
2009,05,28,17,18,20.60
2009,05,28,17,19,20.60
2009,05,28,17,20,20.60
2009,05,28,17,21,20.60
2009,05,28,17,22,20.60
2009,05,28,17,23,20.60
2009,05,28,17,24,20.70
2009,05,28,17,25,20.70
2009,05,28,17,26,20.70
2009,05,28,17,27,20.80
2009,05,28,17,28,20.80
2009,05,28,17,29,20.80
2009,05,28,17,30,20.80
2009,05,28,17,31,20.80